Location: Macksville High School
(37.9611°N, 99.9654°W)
Time: 01:49:28
(UTC+00:00)

Cosmos 1980 - Pass Details

Date: 17 January 2021
Orbit: 840 x 846 km, 71.0° (Epoch: 07 March)

Event Time Altitude Azimuth Distance (km) Brightness Sun altitude
Rises 13:19:23 0° 217° (SW) 3,385 6.7 -7.0°
Reaches altitude 10° 13:21:55 10° 222° (SW) 2,453 5.9 -6.6°
Maximum altitude 13:27:20 48° 297° (WNW) 1,088 3.9 -5.6°
Drops below altitude 10° 13:32:48 10° 11° (N) 2,464 6.0 -4.6°
Sets 13:35:20 0° 17° (NNE) 3,402 6.8 -4.1°
